{"data":{"norad_id":58416,"intl_designator":"2023-180Q","name":"STARLINK-30967","alt_names":[],"object_type":"PAYLOAD","status":"ACTIVE","operator":null,"country":"US","launch_date":"2023-11-22","launch_site_code":"AFETR","launch_vehicle":null,"mission":null,"orbit_class":"UNKNOWN","rcs_meters":null,"size_class":null,"mass_kg":null,"dimensions":null,"purposes":["comms"],"wikipedia_slug":null,"has_3d_model":false,"image_url":null,"decayed_at":null,"tle_current":{"epoch":"2026-09-20T09:29:45.408480Z","epoch_age_seconds":156015,"freshness":"FRESH","line1":"1 58416U 23180Q   26263.39566445  .00000243  00000+0  18351-4 0  9999","line2":"2 58416  43.0038  32.9520 0001657 274.3926  85.6736 15.27577520157400","mean_motion":15.2757752,"eccentricity":0.0001657,"inclination_deg":43.0038,"raan_deg":32.952,"arg_perigee_deg":274.3926,"mean_anomaly_deg":85.6736,"bstar":1.8351e-5,"rev_number":15740,"period_min":94.266901754354,"perigee_km":481.91962229527,"apogee_km":484.19342182848,"semimajor_km":6861.1935220619,"source":"CELESTRAK","updated_at":"2026-09-21T09:00:33.872823Z"}}}